Chicago Executive, IL

4:03 AM CDT on July 24, 2017 (GMT -0500)
Chicago Executive

Weather History for KPWK - March, 2013

Change the Weather History Date:

Sunday, March 31, 2013

  Actual Average Record
Temperature  
Mean Temperature 47 °F 42 °F  
Max Temperature 58 °F 52 °F 78 °F (2010)
Min Temperature 35 °F 33 °F 22 °F (2011)
Degree Days  
Heating Degree Days 18 23  
Month to date heating degree days 1025 852  
Since 1 July heating degree days 5532 5591  
Cooling Degree Days 0 0  
Month to date cooling degree days 0 0  
Year to date cooling degree days 0 0  
Moisture  
Dew Point 36 °F    
Average Humidity 68    
Maximum Humidity 87    
Minimum Humidity 33    
Precipitation  
Precipitation T in 0.08 in 0.39 in (2008)
Month to date precipitation 0.82 2.25  
Year to date precipitation 5.78 4.83  
Sea Level Pressure  
Sea Level Pressure 29.79 in    
Wind  
Wind Speed 13 mph (West)    
Max Wind Speed 26 mph    
Max Gust Speed 33 mph    
Visibility 8 miles    
Events      
T = Trace of Precipitation, MM = Missing Value Source: NWS Daily Summary

Daily Weather History Graph

Daily Weather History Graph

Search for Another Location

Airport or City:

Trip Planner

Search our weather history database for the weather conditions in past years. The results will help you decide how hot, cold, wet, or windy it might be!

Date:

Astronomy

Mar. 31, 2013 Rise Set
Actual Time 6:35 AM CDT 7:16 PM CDT
Civil Twilight 6:07 AM CDT 7:44 PM CDT
Nautical Twilight 5:33 AM CDT 8:18 PM CDT
Astronomical Twilight 4:59 AM CDT 8:52 PM CDT
Moon No Moon Rise 9:18 AM CDT (3/31)
Length of Visible Light 13h 37m
Length of Day
12h 40m
Waning Gibbous, 77% of the Moon is Illuminated
Mar 31
Waning Gibbous
Apr 2
Last Quarter
Apr 10
New
Apr 18
First Quarter
Apr 25
Full

Hourly Weather History & Observations

Time (CDT) Temp. Windchill Dew Point Humidity Pressure Visibility Wind Dir Wind Speed Gust Speed Precip Events Conditions
12:52 AM 50.0 °F - 39.9 °F 68% 29.83 in 8.0 mi SW 9.2 mph - N/A   Overcast
1:48 AM 48.2 °F - 42.8 °F 82% 29.81 in 6.0 mi WSW 9.2 mph - N/A   Haze
1:52 AM 48.0 °F - 42.1 °F 80% 29.82 in 6.0 mi WSW 8.1 mph - N/A   Haze
2:23 AM 46.4 °F 42.9 °F 42.8 °F 87% 29.80 in 5.0 mi WSW 6.9 mph - N/A   Haze
2:52 AM 46.9 °F - 43.0 °F 86% 29.80 in 3.0 mi WSW 6.9 mph - N/A   Overcast
3:20 AM 46.4 °F 42.4 °F 42.8 °F 87% 29.79 in 5.0 mi West 8.1 mph - N/A   Overcast
3:52 AM 46.0 °F 42.5 °F 42.1 °F 86% 29.79 in 5.0 mi West 6.9 mph - N/A   Overcast
4:08 AM 46.4 °F 42.9 °F 42.8 °F 87% 29.78 in 6.0 mi West 6.9 mph - N/A   Overcast
4:19 AM 46.4 °F 41.9 °F 42.8 °F 87% 29.78 in 6.0 mi WNW 9.2 mph - N/A   Overcast
4:52 AM 46.0 °F 42.5 °F 41.0 °F 83% 29.78 in 6.0 mi West 6.9 mph - N/A   Haze
5:49 AM 44.6 °F 41.4 °F 39.2 °F 81% 29.78 in 8.0 mi West 5.8 mph - N/A   Partly Cloudy
5:52 AM 45.0 °F 40.1 °F 39.0 °F 80% 29.78 in 8.0 mi WNW 9.2 mph - N/A   Scattered Clouds
6:52 AM 43.0 °F 37.7 °F 37.9 °F 82% 29.79 in 6.0 mi WNW 9.2 mph - N/A   Haze
7:33 AM 42.8 °F 38.0 °F 37.4 °F 81% 29.79 in 6.0 mi WNW 8.1 mph - N/A   Haze
7:52 AM 42.1 °F 35.7 °F 36.0 °F 79% 29.80 in 6.0 mi WNW 11.5 mph - N/A   Haze
8:52 AM 43.0 °F 38.8 °F 37.0 °F 80% 29.80 in 6.0 mi WSW 6.9 mph - N/A   Haze
9:52 AM 44.1 °F 38.6 °F 37.0 °F 76% 29.80 in 5.0 mi West 10.4 mph - N/A   Haze
10:33 AM 46.4 °F 41.5 °F 37.4 °F 71% 29.78 in 6.0 mi West 10.4 mph 18.4 mph N/A   Haze
10:52 AM 48.9 °F - 37.9 °F 66% 29.78 in 7.0 mi West 11.5 mph 16.1 mph N/A   Clear
11:52 AM 53.1 °F - 37.0 °F 55% 29.77 in 10.0 mi West 13.8 mph 20.7 mph N/A   Clear
12:52 PM 55.9 °F - 36.0 °F 47% 29.74 in 10.0 mi West 19.6 mph 23.0 mph N/A   Scattered Clouds
1:52 PM 55.9 °F - 35.1 °F 45% 29.73 in 10.0 mi West 12.7 mph 24.2 mph N/A   Mostly Cloudy
2:52 PM 57.0 °F - 34.0 °F 42% 29.71 in 10.0 mi West 18.4 mph 28.8 mph N/A   Mostly Cloudy
3:52 PM 57.0 °F - 28.0 °F 33% 29.72 in 10.0 mi West 20.7 mph 28.8 mph N/A   Mostly Cloudy
4:52 PM 53.1 °F - 28.0 °F 38% 29.74 in 10.0 mi WNW 20.7 mph 31.1 mph N/A   Clear
5:52 PM 46.9 °F - 30.0 °F 52% 29.78 in 10.0 mi WNW 18.4 mph 27.6 mph N/A   Partly Cloudy
6:52 PM 46.0 °F 40.2 °F 28.0 °F 50% 29.80 in 10.0 mi WNW 12.7 mph - N/A   Partly Cloudy
7:52 PM 42.1 °F 34.5 °F 26.1 °F 53% 29.83 in 10.0 mi WNW 15.0 mph - N/A   Scattered Clouds
8:52 PM 41.0 °F 33.9 °F 26.1 °F 55% 29.86 in 10.0 mi WNW 12.7 mph - N/A   Clear
9:52 PM 39.9 °F 31.4 °F 26.1 °F 58% 29.88 in 10.0 mi WNW 16.1 mph 21.9 mph N/A   Mostly Cloudy
10:52 PM 39.0 °F 31.0 °F 25.0 °F 57% 29.89 in 10.0 mi NW 13.8 mph - 0.00 in   Scattered Clouds
11:52 PM 37.0 °F 29.3 °F 23.0 °F 57% 29.91 in 10.0 mi NW 11.5 mph - N/A   Partly Cloudy